Location: Alladorf
(49.9620°N, 11.3790°E)
Time: 20:45:17
(UTC+00:00)

USA 234 - Pass Details

Date: 29 November 2020
Orbit: 1098 x 1110 km, 123.0° (Epoch: 22 January)

Event Time Altitude Azimuth Distance (km) Brightness Sun altitude
Rises 05:47:46 0° 56° (NE) 3,941 6.7 -9.5°
Reaches altitude 10° 05:50:18 10° 59° (ENE) 2,980 6.1 -9.1°
Maximum altitude 05:56:51 66° 142° (SE) 1,202 3.8 -8.1°
Drops below altitude 10° 06:03:22 10° 224° (SW) 2,966 5.3 -7.2°
Sets 06:05:52 0° 227° (SW) 3,921 5.9 -6.8°
